Location: Tom's Yard
(40.4840°N, 78.0100°W)
Time: 11:14:06
(UTC-04:00)

N. Korean satellite - Visible Passes

Search period start: 15 October 2018 00:00
Search period end: 25 October 2018 00:00
Orbit: 459 x 510 km, 97.2° (Epoch: 15 October)

Date Brightness Start Highest point End Pass type
(mag) Time Alt. Az. Time Alt. Az. Time Alt. Az.
15 Oct 10.7 06:26:35 10° ENE 06:27:18 10° E 06:28:00 10° E visible
16 Oct 9.9 19:42:35 10° SW 19:45:10 18° W 19:47:46 10° NW visible
17 Oct 8.5 19:17:12 10° SSW 19:20:37 35° W 19:24:05 10° NNW visible
18 Oct 10.0 06:45:03 10° NE 06:47:40 18° E 06:50:15 10° SE visible
18 Oct 6.9 18:52:29 10° S 18:56:10 76° W 18:59:55 10° NNW visible
19 Oct 10.6 20:05:19 10° W 20:05:32 10° W 20:05:45 10° W visible
20 Oct 9.7 19:38:08 10° SW 19:40:55 20° W 19:43:44 10° NW visible
21 Oct 8.3 19:12:52 10° SSW 19:16:22 39° W 19:19:55 10° NNW visible
22 Oct 10.0 06:41:01 10° NE 06:43:23 16° E 06:45:42 10° SE visible
22 Oct 6.7 18:48:12 10° S 18:51:55 85° W 18:55:41 10° NNW visible
23 Oct 10.4 19:59:58 10° WSW 20:01:14 11° W 20:02:29 10° WNW visible
24 Oct 9.4 19:33:38 10° SSW 19:36:37 22° W 19:39:36 10° NW visible
